Monticello, KY

2:02 AM EST on November 17, 2019 (GMT -0500)
Wayne County

Weather History for KEKQ - September, 2019

Change the Weather History Date:

Thursday, September 19, 2019

  Actual Average Record
Temperature  
Mean Temperature 72 °F -  
Max Temperature 84 °F 80 °F 91 °F (2018)
Min Temperature 61 °F 56 °F 39 °F (1973)
Cooling Degree Days 8    
Growing Degree Days 22 (Base 50)    
Moisture  
Dew Point 64 °F    
Average Humidity 67    
Maximum Humidity 100    
Minimum Humidity 49    
Precipitation  
Precipitation 0.00 in - - ()
Sea Level Pressure  
Sea Level Pressure 30.11 in    
Wind  
Wind Speed 5 mph (ENE)    
Max Wind Speed 15 mph    
Max Gust Speed 17 mph    
Visibility 10 miles    
Events      
Averages and records for this station are not official NWS values.
T = Trace of Precipitation, MM = Missing Value Source: NWS Daily Summary

Daily Weather History Graph

Daily Weather History Graph

Search for Another Location

Airport or City:

Astronomy

Sep. 19, 2019 Rise Set
Actual Time 6:24 AM CDT 6:41 PM CDT
Civil Twilight 5:58 AM CDT 7:07 PM CDT
Nautical Twilight 5:28 AM CDT 7:37 PM CDT
Astronomical Twilight 4:57 AM CDT 8:08 PM CDT
Moon 9:57 PM CDT (9/19) 11:20 AM CDT (9/19)
Length of Visible Light 13h 08m
Length of Day
12h 16m
Waning Gibbous, 74% of the Moon is Illuminated
Sep 19
Waning Gibbous
Sep 21
Last Quarter
Sep 28
New
Oct 5
First Quarter
Oct 13
Full

Hourly Weather History & Observations

Time (CDT) Temp. Heat Index Dew Point Humidity Pressure Visibility Wind Dir Wind Speed Gust Speed Precip Events Conditions
12:56 AM 61.0 °F - 61.0 °F 100% 30.04 in 10.0 mi Calm Calm - N/A   Clear
1:56 AM 71.1 °F - 66.0 °F 84% 30.04 in 10.0 mi Calm Calm - N/A   Clear
2:56 AM 72.0 °F - 66.9 °F 84% 30.06 in 10.0 mi East 6.9 mph - N/A   Clear
3:56 AM 72.0 °F - 66.9 °F 84% 30.06 in 10.0 mi Variable 5.8 mph - N/A   Clear
4:56 AM 72.0 °F - 66.0 °F 81% 30.07 in 10.0 mi ESE 8.1 mph - N/A   Overcast
5:56 AM 70.0 °F - 64.9 °F 84% 30.09 in 10.0 mi East 5.8 mph - N/A   Scattered Clouds
6:56 AM 70.0 °F - 63.0 °F 78% 30.12 in 10.0 mi East 6.9 mph - N/A   Clear
7:56 AM 73.0 °F - 62.1 °F 68% 30.14 in 10.0 mi Variable 4.6 mph - N/A   Scattered Clouds
8:56 AM 77.0 °F - 62.1 °F 60% 30.14 in 10.0 mi Variable 4.6 mph - N/A   Clear
9:56 AM 80.1 °F 81.1 °F 61.0 °F 52% 30.15 in 10.0 mi Variable 6.9 mph 16.1 mph N/A   Overcast
10:56 AM 81.0 °F 82.2 °F 63.0 °F 54% 30.16 in 10.0 mi Variable 6.9 mph - N/A   Mostly Cloudy
11:56 AM 81.0 °F 82.2 °F 63.0 °F 54% 30.15 in 10.0 mi WSW 15.0 mph - N/A   Overcast
12:56 PM 82.9 °F 84.0 °F 63.0 °F 51% 30.14 in 10.0 mi Variable 6.9 mph - N/A   Mostly Cloudy
1:56 PM 84.9 °F 86.1 °F 64.0 °F 49% 30.12 in 10.0 mi WSW 11.5 mph 17.3 mph N/A   Mostly Cloudy
2:56 PM 84.0 °F 85.4 °F 64.0 °F 51% 30.09 in 10.0 mi North - - N/A   Overcast
3:56 PM 84.0 °F 85.4 °F 64.0 °F 51% 30.09 in 10.0 mi WNW 11.5 mph - N/A   Overcast
4:56 PM 84.0 °F 85.4 °F 64.0 °F 51% 30.09 in 10.0 mi NE 4.6 mph - N/A   Overcast
6:56 PM 78.1 °F - 64.0 °F 62% 30.09 in 10.0 mi SE 5.8 mph - N/A   Clear
7:56 PM 77.0 °F - 64.9 °F 66% 30.11 in 10.0 mi NE 8.1 mph - N/A   Mostly Cloudy
8:56 PM 73.9 °F - 64.0 °F 71% 30.12 in 10.0 mi NE 5.8 mph - N/A   Clear
9:56 PM 73.9 °F - 64.0 °F 71% 30.14 in 10.0 mi ENE 8.1 mph - N/A   Mostly Cloudy
10:56 PM 73.0 °F - 63.0 °F 71% 30.14 in 10.0 mi NE 4.6 mph - N/A   Scattered Clouds
11:56 PM 72.0 °F - 62.1 °F 71% 30.14 in 10.0 mi ENE 4.6 mph - N/A   Clear